CW1084 Weather Reports


Display with metric or nautical units.
time (UTC)temp
F
wind
direction
speed
MPH
gust
MPH
rain 1hr
in
rain 24hr
in
rain mn
in
humidity
%
barometer
mb
20260510204937 79 0.0 9.0 0.00 0.00 0.00 41
20260510204558 79 159 1.0 9.0 0.00 0.00 0.00 40 1010.9
20260510204208 79 159 1.0 9.0 0.00 0.00 0.00 40 1010.8
20260510203937 79 158 2.0 7.0 0.00 0.00 0.00 40 1011.0
20260510203648 79 159 2.0 9.0 0.00 0.00 0.00 40 1011.0
20260510203401 79 159 1.0 9.0 0.00 0.00 0.00 40 1011.1
20260510202940 79 168 1.0 8.0 0.00 0.00 0.00 39 1011.1
20260510201807 80 147 2.0 10.0 0.00 0.00 0.00 38 1011.4
20260510201409 80 143 2.0 10.0 0.00 0.00 0.00 39 1011.5
20260510201146 80 154 1.0 9.0 0.00 0.00 0.00 40 1011.5
20260510200940 80 153 1.0 9.0 0.00 0.00 0.00 38 1011.6
20260510200751 81 153 1.0 7.0 0.00 0.00 0.00 38 1011.7
20260510200415 81 152 2.0 10.0 0.00 0.00 0.00 37 1011.7
20260510200225 81 152 1.0 10.0 0.00 0.00 0.00 36 1011.6
20260510200014 80 170 1.0 6.0 0.00 0.00 0.00 39 1011.6
20260510195804 80 170 1.0 8.0 0.00 0.00 0.00 39 1011.7
20260510195611 80 174 1.0 8.0 0.00 0.00 0.00 38 1011.7
20260510195407 80 178 2.0 10.0 0.00 0.00 0.00 37 1011.6
20260510195201 80 150 2.0 10.0 0.00 0.00 0.00 37 1011.5
20260510194920 80 148 1.0 8.0 0.00 0.00 0.00 38 1011.7
20260510194712 80 148 1.0 10.0 0.00 0.00 0.00 36 1011.7
20260510193606 80 140 2.0 8.0 0.00 0.00 0.00 39 1011.8
20260510162044 71 181 0.0 5.0 0.00 0.00 0.00 28 1012.2
20260510155448 69 181 0.0 1.0 0.00 0.00 0.00 18 1012.2
20260510144429 67 212 0.0 0.0 0.00 0.00 0.00 100 1012.0
20260510142151 65 212 0.0 0.0 0.00 0.00 0.00 100 1011.8
20260510125607 63 205 0.0 2.0 0.00 0.00 0.00 100 1010.7
20260510120035 63 204 0.0 3.0 0.00 0.00 0.00 100 1009.9
20260510110402 63 169 0.0 1.0 0.00 0.00 0.00 100 1009.3
20260510102708 63 166 0.0 1.0 0.00 0.00 0.00 100 1008.9
20260510092649 63 166 0.0 0.0 0.00 0.00 0.00 100 1008.6
20260510091041 64 166 0.0 2.0 0.00 0.00 0.00 100 1008.7
20260510070856 63 164 0.0 0.0 0.00 0.00 0.00 100 1008.7
20260510050529 62 164 0.0 0.0 0.00 0.00 0.00 100 1008.6
20260510024443 62 164 0.0 0.0 0.00 0.00 0.00 100 1008.3
20260510022418 63 164 0.0 0.0 0.00 0.00 0.00 100 1008.2
20260510021739 63 164 0.0 0.0 0.00 0.00 0.00 100 1008.0
20260510021118 63 164 0.0 0.0 0.00 0.00 0.00 100 1008.0
20260510021103 63 164 0.0 0.0 0.00 0.00 0.00 100 1007.9
20260510020436 63 164 0.0 0.0 0.00 0.00 0.00 100 1007.9
20260510015733 63 164 0.0 0.0 0.00 0.00 0.00 100 1007.8
20260510015027 63 164 0.0 0.0 0.00 0.00 0.00 100 1007.9
20260510014516 63 164 0.0 0.0 0.00 0.00 0.00 100 1007.8
20260510014210 63 164 0.0 0.0 0.00 0.00 0.00 100 1007.9
20260510013743 64 164 0.0 0.0 0.00 0.00 0.00 100 1007.7
20260510013642 64 164 0.0 0.0 0.00 0.00 0.00 100 1007.9
20260510013554 63 164 0.0 0.0 0.00 0.00 0.00 100 1007.8
20260510013021 63 164 0.0 0.0 0.00 0.00 0.00 100 1007.8
20260510012219 64 164 0.0 0.0 0.00 0.00 0.00 100 1007.5
20260510012125 64 164 0.0 0.0 0.00 0.00 0.00 100 1007.8
20260510011615 64 164 0.0 0.0 0.00 0.00 0.00 100 1007.7
20260510010851 64 164 0.0 0.0 0.00 0.00 0.00 100 1007.6
20260510010056 64 164 0.0 0.0 0.00 0.00 0.00 1 1007.5
20260510005418 64 164 0.0 0.0 0.00 0.00 0.00 5 1007.5
20260510004855 64 164 0.0 0.0 0.00 0.00 0.00 9 1007.5
20260510004613 64 164 0.0 0.0 0.00 0.00 0.00 12 1007.4
20260510003932 64 164 0.0 0.0 0.00 0.00 0.00 16 1007.3
20260510003453 65 164 0.0 0.0 0.00 0.00 0.00 27 1007.3
20260510003422 65 164 0.0 0.0 0.00 0.00 0.00 24 1007.3
20260510003354 65 164 0.0 0.0 0.00 0.00 0.00 20 1007.3
20260510001919 65 164 0.0 0.0 0.00 0.00 0.00 32 1007.2
20260510001851 65 164 0.0 0.0 0.00 0.00 0.00 30 1007.2
20260510001249 65 164 0.0 0.0 0.00 0.00 0.00 33 1007.1
20260510000428 65 164 0.0 0.0 0.00 0.00 0.00 35 1007.1
20260510000003 66 164 0.0 2.0 0.00 0.00 0.00 37 1007.0
20260509235839 65 164 0.0 0.0 0.00 0.00 0.00 36 1007.1
20260509235328 66 164 0.0 0.0 0.00 0.00 0.00 36 1007.0
20260509234535 66 164 0.0 2.0 0.00 0.00 0.00 38 1007.0
20260509234326 66 164 0.0 2.0 0.00 0.00 0.00 37 1007.1
20260509233908 67 164 1.0 8.0 0.00 0.00 0.00 38 1006.9
20260509233805 66 164 0.0 2.0 0.00 0.00 0.00 37 1007.0
20260509232932 66 164 0.0 5.0 0.00 0.00 0.00 38 1007.0
20260509231616 67 165 1.0 8.0 0.00 0.00 0.00 38 1006.9
20260509231114 67 152 0.0 5.0 0.00 0.00 0.00 38 1006.9
20260509231031 67 150 0.0 7.0 0.00 0.00 0.00 38 1006.9
20260509230152 67 175 0.0 7.0 0.00 0.00 0.00 38 1006.9
20260509225607 67 176 0.0 4.0 0.00 0.00 0.00 38 1006.9
20260509225046 67 175 0.0 4.0 0.00 0.00 0.00 37 1007.0
20260509224547 67 176 0.0 5.0 0.00 0.00 0.00 37 1007.1
20260509224056 68 177 0.0 5.0 0.00 0.00 0.00 37 1007.1
20260509223547 68 179 0.0 4.0 0.00 0.00 0.00 36 1007.1
20260509223042 68 181 1.0 5.0 0.00 0.00 0.00 36 1007.1
20260509222537 68 181 1.0 9.0 0.00 0.00 0.00 36 1007.2
20260509222320 68 187 1.0 9.0 0.00 0.00 0.00 36 1007.2
20260509221532 68 134 1.0 6.0 0.00 0.00 0.00 36 1007.1
20260509221101 68 127 1.0 8.0 0.00 0.00 0.00 36 1007.2
20260509220526 69 146 1.0 8.0 0.00 0.00 0.00 37 1007.1
20260509220301 69 158 1.0 8.0 0.00 0.00 0.00 37 1007.1
20260509215518 69 154 1.0 8.0 0.00 0.00 0.00 37 1007.1
20260509215015 69 148 1.0 8.0 0.00 0.00 0.00 38 1007.0
20260509214623 70 171 1.0 9.0 0.00 0.00 0.00 39 1007.0
20260509214531 70 150 1.0 8.0 0.00 0.00 0.00 38 1007.0
20260509213503 70 120 1.0 11.0 0.00 0.00 0.00 39 1006.9
20260509213008 70 157 1.0 11.0 0.00 0.00 0.00 39 1007.0
20260509212502 70 178 1.0 7.0 0.00 0.00 0.00 39 1007.0
20260509212030 70 180 1.0 9.0 0.00 0.00 0.00 39 1006.9
20260509211501 70 148 1.0 9.0 0.00 0.00 0.00 39 1006.9
20260509210951 70 163 1.0 9.0 0.00 0.00 0.00 39 1006.9
20260509210212 69 162 1.0 9.0 0.00 0.00 0.00 39 1006.8
20260509205641 69 163 1.0 6.0 0.00 0.00 0.00 40 1006.8
20260509205338 68 146 1.0 6.0 0.00 0.00 0.00 40 1006.8